Location: Unspecified
(42.2458°N, 0.0000°E)
Time: 03:10:32
(UTC+00:00)

IRIDIUM 161 - Visible Passes

Search period start: 04 April 2026 00:00
Search period end: 14 April 2026 00:00
Orbit: 746 x 749 km, 86.4° (Epoch: 29 March)

Date Brightness Start Highest point End Pass type
(mag) Time Alt. Az. Time Alt. Az. Time Alt. Az.
4 Apr ? 19:43:20 10° SSW 19:48:10 45° W 19:53:02 10° N visible
5 Apr ? 19:00:41 10° S 19:05:44 80° E 19:10:49 10° N visible
5 Apr ? 20:44:41 10° W 20:46:28 12° WNW 20:48:15 10° NW visible
6 Apr ? 19:59:27 10° SW 20:03:38 26° WNW 20:07:51 10° NNW visible
7 Apr ? 19:16:05 10° SSW 19:21:02 57° W 19:26:02 10° N visible
8 Apr ? 20:16:24 10° WSW 20:19:13 15° WNW 20:22:03 10° NW visible
9 Apr ? 05:00:29 10° NE 05:03:27 15° ENE 05:06:25 10° ESE visible
9 Apr ? 19:31:58 10° SW 19:36:27 32° W 19:40:59 10° NNW visible
11 Apr ? 19:48:30 10° WSW 19:51:59 18° WNW 19:55:29 10° NNW visible
12 Apr ? 04:34:11 10° NE 04:36:12 12° ENE 04:38:14 10° E visible
12 Apr ? 19:04:34 10° SSW 19:09:17 40° W 19:14:03 10° NNW visible
13 Apr ? 20:07:12 10° WNW 20:07:38 10° WNW 20:08:05 10° WNW visible
